"Pseudo-MPEC" for P11Or3D

Created 2023 Nov 22 5:22:10 UT using Find_Orb

Click here for an explanation of pseudo-MPECs

 
 Astrometry: 
     P11Or3D* C2023 11 1929L37QLB=%3#N^lAUGcf8AstrometryOSfbX,m:(%:vR'3)-U3B#F51
     P11Or3D  C2023 11 19;I66qTV/redacted;)dOkB5click_]=QmJYSf5.S11Il[_(,9^oCF51
     P11Or3D  C2023 11 19HxhE3'(*3xJFXXgnf@YwCK2)SrBlg?neb9RCu]C/[n/mLv;lqui:F51
     P11Or3D  C2023 11 19FVCTN@Fp9:[UT4y)KBl,jSpRobIj,6b;j6[j,O+B*90)v[iAJEtAF51
     P11Or3D 6C2023 11 20wi]!3i?JhereQZnBp_NyDp)7forg3;GV\q!W8yPT4?s8q-,9WEAVZ84
     P11Or3D 6C2023 11 20Cl`ZL'HhN$JE[8Y6h3J-`bXmHexplanationKKHm'E_AZ1H(Sv,XZ84
     P11Or3D KC2023 11 21.28541303 32 52.955+32 07 30.79   ~BL7q 21.22GVNEOCPI52
     P11Or3D KC2023 11 21.28827603 32 52.775+32 07 27.95   ~BL7q 21.39GVNEOCPI52
     P11Or3D KC2023 11 21.29171003 32 52.541+32 07 23.92   ~BL7q 21.28GVNEOCPI52
     P11Or3D KC2023 11 21.30824403 32 51.040+32 07 05.52   ~BL7q 22.02GVNEOCPI52

Station data:
(F51) Pan-STARRS 1, Haleakala  (N20.707234 W156.255910)  US/Hawaii.
   Observers J. Bulger, T. Lowe, A. Schultz, M. Willman. Measurers K.
   Chambers, S. Chastel, T. de Boer, L. Denneau, J. Fairlamb, H. Flewelling,
   M. Huber, C.-C. Lin, E. Magnier, Y. Ramanjooloo, R. Wainscoat, R. Weryk.
   1.8-m Ritchey-Chrétien + CCD.
(I52) Steward Observatory, Mt. Lemmon Station  (N32.442544 W110.788920)
   US/Arizona.  Observers T. A. Pruyne, B. M. Africano, E. J. Christensen, G.
   A. Farneth, D. C. Fuls, A. R. Gibbs, A. D. Grauer, H. Gröller, J. A.
   Johnson, R. A. Kowalski, S. M. Larson, G. J. Leonard, D. Rankin, R. L.
   Seaman, F. C. Shelly, K. W. Wierzchoś. 1.0-m prime focus + CCD.
(Z84) Calar Alto-Schmidt  (N37.224046 W2.548210)  Spain.  Observer R. Kresken.
    Measurers E. Schwab, D. Koschny, M. Micheli. 0.8-m f/3 Schmidt + CCD.

Orbital elements:  P11Or3D
   Perihelion 2023 Feb 24.40927 +/- 385 TT =  9:49:20 (JD 2459999.90927)
Epoch 2023 Nov 21.0 TT = JDT 2460269.5   Earth MOID: 0.6201      AutoNEOCP
M  88.29775665 +/- 100              (J2000 ecliptic)
n   0.32752519 +/- 0.0511           Peri.   47.89569 +/- 60
a   2.08436085 +/- 0.217            Node   253.30324 +/- 5.1
e   0.2468046 +/- 0.0696            Incl.   25.59465 +/- 11
P   3.01                   H 19.07  G  0.15   U 10.8  SR
q 1.56993094 +/- 0.17    Q 2.59879076 +/- 0.331
From 10 observations 2023 Nov. 19-21 (47.7 hr); mean residual 0".49
Residuals in arcseconds: 
231119 F51  .19+  .16-    231120 Z84  .73+  .85+    231121 I52  .65+  .38-    
231119 F51  .05-  .16-    231120 Z84  .53+  .86+    231121 I52  .89-  .48-    
231119 F51  .00   .09+    231121 I52  .77-  .47-    
231119 F51  .18-  .19+    231121 I52  .02-  .15-    

Ephemerides (geocentric):
Date (UTC) HH   RA             Dec           delta  r     elong  mag " sig PA
---- --------  ------------   ------------  ------ ------ -----  --- --------
2023 11 22 05  03 31 39.219   +31 50 27.58  1.2207 2.1957 167.6 21.7 6.60 134
2023 11 22 06  03 31 35.911   +31 49 41.21  1.2208 2.1958 167.6 21.7 6.98 134
2023 11 22 07  03 31 32.604   +31 48 54.82  1.2209 2.1959 167.6 21.7 7.36 134
2023 11 22 08  03 31 29.300   +31 48 08.42  1.2210 2.1960 167.6 21.7 7.75 134
2023 11 22 09  03 31 25.997   +31 47 22.00  1.2212 2.1961 167.6 21.7 8.15 134
2023 11 22 10  03 31 22.697   +31 46 35.58  1.2213 2.1962 167.6 21.7 8.56 134
2023 11 22 11  03 31 19.399   +31 45 49.14  1.2214 2.1964 167.6 21.7 8.98 134
2023 11 22 12  03 31 16.102   +31 45 02.68  1.2215 2.1965 167.6 21.7 9.40 134
2023 11 22 13  03 31 12.808   +31 44 16.22  1.2216 2.1966 167.6 21.7 9.83 134
2023 11 22 14  03 31 09.516   +31 43 29.74  1.2217 2.1967 167.6 21.7 10.3 134
2023 11 22 15  03 31 06.225   +31 42 43.25  1.2218 2.1968 167.6 21.7 10.7 134
2023 11 22 16  03 31 02.937   +31 41 56.75  1.2220 2.1969 167.6 21.7 11.2 134
2023 11 22 17  03 30 59.651   +31 41 10.23  1.2221 2.1970 167.6 21.7 11.6 134
2023 11 22 18  03 30 56.367   +31 40 23.71  1.2222 2.1972 167.6 21.7 12.1 134
2023 11 22 19  03 30 53.085   +31 39 37.17  1.2223 2.1973 167.6 21.7 12.6 134
2023 11 22 20  03 30 49.805   +31 38 50.62  1.2224 2.1974 167.6 21.7 13.1 134
2023 11 22 21  03 30 46.528   +31 38 04.05  1.2226 2.1975 167.6 21.7 13.6 134
2023 11 22 22  03 30 43.252   +31 37 17.48  1.2227 2.1976 167.6 21.7 14.1 134
2023 11 22 23  03 30 39.979   +31 36 30.89  1.2228 2.1977 167.6 21.7 14.6 134
2023 11 23 00  03 30 36.707   +31 35 44.29  1.2229 2.1978 167.6 21.7 15.1 134
2023 11 23 01  03 30 33.438   +31 34 57.68  1.2230 2.1979 167.6 21.7 15.6 134
2023 11 23 02  03 30 30.171   +31 34 11.06  1.2232 2.1981 167.6 21.7 16.2 134
2023 11 23 03  03 30 26.906   +31 33 24.43  1.2233 2.1982 167.6 21.7 16.7 134
2023 11 23 04  03 30 23.643   +31 32 37.78  1.2234 2.1983 167.6 21.7 17.3 134
2023 11 23 05  03 30 20.383   +31 31 51.13  1.2235 2.1984 167.6 21.7 17.8 134
2023 11 23 06  03 30 17.124   +31 31 04.46  1.2237 2.1985 167.6 21.7 18.4 134
2023 11 23 07  03 30 13.868   +31 30 17.78  1.2238 2.1986 167.6 21.7 19.0 134
2023 11 23 08  03 30 10.614   +31 29 31.09  1.2239 2.1987 167.6 21.7 19.6 134
2023 11 23 09  03 30 07.362   +31 28 44.39  1.2240 2.1989 167.6 21.7 20.2 134
2023 11 23 10  03 30 04.112   +31 27 57.68  1.2242 2.1990 167.6 21.7 20.8 134
2023 11 23 11  03 30 00.865   +31 27 10.96  1.2243 2.1991 167.6 21.7 21.4 134
2023 11 23 12  03 29 57.619   +31 26 24.23  1.2244 2.1992 167.6 21.7 22.0 134
2023 11 23 13  03 29 54.376   +31 25 37.48  1.2245 2.1993 167.6 21.7 22.6 134
2023 11 23 14  03 29 51.135   +31 24 50.73  1.2247 2.1994 167.6 21.7 23.2 134
2023 11 23 15  03 29 47.897   +31 24 03.97  1.2248 2.1995 167.6 21.7 23.9 134
2023 11 23 16  03 29 44.660   +31 23 17.19  1.2249 2.1996 167.6 21.7 24.5 134
2023 11 23 17  03 29 41.426   +31 22 30.41  1.2251 2.1998 167.6 21.7 25.2 134
2023 11 23 18  03 29 38.194   +31 21 43.61  1.2252 2.1999 167.6 21.7 25.9 134
2023 11 23 19  03 29 34.965   +31 20 56.81  1.2253 2.2000 167.6 21.7 26.5 134
2023 11 23 20  03 29 31.737   +31 20 09.99  1.2254 2.2001 167.6 21.7 27.2 134
2023 11 23 21  03 29 28.512   +31 19 23.17  1.2256 2.2002 167.6 21.7 27.9 134
2023 11 23 22  03 29 25.289   +31 18 36.33  1.2257 2.2003 167.6 21.7 28.6 134
2023 11 23 23  03 29 22.069   +31 17 49.49  1.2258 2.2004 167.6 21.7 29.3 134
2023 11 24 00  03 29 18.850   +31 17 02.63  1.2260 2.2006 167.6 21.7 30.0 134
2023 11 24 01  03 29 15.634   +31 16 15.77  1.2261 2.2007 167.6 21.7 30.7 134
2023 11 24 02  03 29 12.421   +31 15 28.90  1.2262 2.2008 167.6 21.7 31.5 134
2023 11 24 03  03 29 09.209   +31 14 42.01  1.2264 2.2009 167.6 21.7 32.2 134
2023 11 24 04  03 29 06.000   +31 13 55.12  1.2265 2.2010 167.5 21.7 33.0 134